Content
SEND FEEDBACK

Daily
Averages
Monthly
Summary
United States of America

GLEN CANYON CITY, UTAH


Home > North America > United States > Utah
Elevation: 4133 feet     Latitude: 37 05N     Longitude: 111 40W

WEATHER
 
SELECT A DAY
Number of Records: 194,702;   Date Range: 1/1/95 - 7/26/14
 
SHARE

PRINT THIS DATA

[ ← Previous Day ]
WEATHER ALMANAC - JANUARY 31, 2013
[ Next Day → ]
[ °C ]   °F
Weather ElementAverageHighLow
Temperature40.5 °F51.1 °F (3:53 pm)32 °F (6:53 am)
Dewpoint26.8 °F28.9 °F (10:53 am)25 °F (6:53 am)
Humidity59.8 %75 % (6:53 am)38 % (2:53 pm)
Barometer30.26 in30.32 in (9:53 am)30.22 in (3:53 am)
Wind Speed2.9 mph6.9 mph (1:53 am)
Weather ElementAverage
Visibility9.4 mi
Wind DirectionE (86.1 °)

Weather ElementTotal
Precipitation---
Heating Degree Days23.5 (Base 65)
Averaged from 23 records on January 31, 2013
WEATHER CONDITIONS BREAKOUT
WIND DIRECTION BREAKOUT
WEATHER BY HOUR - JANUARY 31, 2013
[ °C ]   °F
Local TimeTemperatureDewpointHumidityBarometerVisibilityWind DirectionWind SpeedGust SpeedPrecipitationEventsConditions
1:53 AM36.0 °F27.0 °F70 %30.23 in10.0 miSE (140°)6.9 mphClear
2:53 AM35.1 °F26.1 °F70 %30.23 in10.0 miESE (120°)6.9 mphClear
3:53 AM35.1 °F26.1 °F70 %30.22 in10.0 miCalmClear
4:53 AM34.0 °F26.1 °F73 %30.23 in10.0 miESE (120°)3.5 mphClear
5:53 AM35.1 °F26.1 °F70 %30.24 in10.0 miESE (120°)3.5 mphClear
6:53 AM32.0 °F25.0 °F75 %30.28 in10.0 miESE (120°)5.8 mphClear
7:53 AM32.0 °F25.0 °F75 %30.31 in7.0 miCalmClear
8:53 AM37.9 °F28.0 °F68 %30.30 in10.0 miNorth (350°)4.6 mphClear
9:53 AM39.0 °F28.0 °F65 %30.32 in10.0 miVariable3.5 mphClear
10:53 AM42.1 °F28.9 °F60 %30.32 in10.0 miNorth (10°)5.8 mphClear
11:53 AM45.0 °F28.9 °F53 %30.30 in10.0 miCalmClear
12:53 PM46.9 °F28.0 °F48 %30.26 in10.0 miCalmClear
1:53 PM48.0 °F25.0 °F41 %30.26 in10.0 miNorth (10°)3.5 mphClear
2:53 PM50.0 °F25.0 °F38 %30.24 in10.0 miCalmClear
3:53 PM51.1 °F26.1 °F38 %30.23 in10.0 miNNE (20°)4.6 mphClear
4:53 PM48.9 °F26.1 °F41 %30.23 in10.0 miNorth (360°)5.8 mphClear
5:53 PM45.0 °F27.0 °F49 %30.23 in10.0 miCalmClear
6:53 PM43.0 °F27.0 °F53 %30.25 in10.0 miCalmClear
7:53 PM42.1 °F28.0 °F58 %30.26 in10.0 miSSE (150°)3.5 mphClear
8:53 PM39.9 °F28.0 °F63 %30.25 in5.0 miCalmHaze
9:53 PM37.9 °F27.0 °F65 %30.26 in5.0 miWSW (240°)3.5 mphHaze
10:53 PM39.0 °F28.0 °F65 %30.25 in10.0 miSW (220°)4.6 mphClear
11:53 PM37.0 °F27.0 °F67 %30.25 in10.0 miCalmClear
Hourly data recorded from KPGA, located miles away from Glen Canyon City, Utah







STORIES FROM OUR PARTNERS